Flag for Belarus Weather past 2 weeks in Gomel, Belarus

Now
66 °F

Clear.


Feels Like: 66 °F
Forecast: 68 / 81 °F
Wind: 3 mph from North

Location: Gomel'

Current Time: Jul 6, 2015 at 4:56:17 AM

Latest Report: Jul 6, 2015 at 4:00 AM


Visibility: 10 mi

Pressure: 29.95 "Hg

Humidity: 78%

Dew point: 59 °F

Location of GomelLocation

Historic Weather in Gomel — Graph

°F

Gomel temperature yesterday

Maximum temperature yesterday: 91 °F (at 4:00 PM)
Minimum temperature yesterday: 66 °F (at 4:00 AM)
Average temperature yesterday: 81 °F

Past Weeks' High & Low Weather Summary

 TemperatureHumidityPressure
High91 °F (Jul 5, 4:00 PM)100% (Jun 26, 11:00 PM)30.39 "Hg (Jun 26, 11:00 PM)
Low50 °F (Jun 29, 6:00 AM)23% (Jul 5, 6:00 PM)29.80 "Hg (Jun 21, 3:00 AM)
Average68 °F62%30.02 "Hg
* Reported Jun 21 3:00 AM — Jul 6 3:30 AM, Gomel, Weather by CustomWeather, © 2015

Note: Actual official high and low records may vary slightly from our data, if they occured in-between our weather recording intervals... More about our weather records

Advertising

Gomel weather history for previous 24 hours

 ConditionsComfort  
Time TempWeatherWind HumidityBarometerVisibility
3:30 AM
Mon, Jul 6
68 °FClear.3 mph73%29.95 "Hg10 mi
3:00 AM68 °FClear.3 mph73%29.95 "Hg10 mi
2:00 AM70 °FClear.3 mph73%29.95 "Hg10 mi
1:00 AM70 °FClear.3 mph69%29.95 "Hg10 mi
12:00 AM72 °FClear.6 mph65%29.95 "Hg10 mi
11:00 PM
Sun, Jul 5
73 °FClear.6 mph61%29.95 "Hg10 mi
10:00 PM75 °FSunny.6 mph57%29.95 "Hg10 mi
9:00 PM82 °FPartly sunny.6 mph45%29.92 "HgN/A
8:00 PM86 °FBroken clouds.3 mph40%29.92 "HgN/A
7:30 PM88 °FSunny.3 mph33%29.95 "Hg10 mi
7:00 PM88 °FSunny.3 mph33%29.95 "Hg10 mi
6:30 PM91 °FSunny.6 mph23%29.95 "Hg10 mi
6:00 PM91 °FSunny.8 mph23%29.95 "Hg10 mi
5:30 PM91 °FSunny.8 mph24%29.95 "Hg10 mi
5:00 PM91 °FSunny.10 mph24%29.95 "Hg10 mi
4:30 PM91 °FSunny.10 mph24%29.98 "Hg10 mi
4:00 PM91 °FSunny.13 mph24%29.98 "Hg10 mi
3:30 PM90 °FSunny.10 mph26%29.98 "Hg10 mi
3:00 PM90 °FSunny.8 mph26%30.01 "Hg10 mi
2:30 PM90 °FSunny.8 mph24%30.01 "Hg10 mi
2:00 PM90 °FSunny.8 mph24%30.01 "Hg10 mi
1:30 PM88 °FBroken clouds.10 mph29%30.04 "HgN/A
1:00 PM88 °FScattered clouds.6 mph29%30.04 "HgN/A
12:30 PM86 °FScattered clouds.6 mph33%30.04 "HgN/A
12:00 PM86 °FPassing clouds.6 mph33%30.04 "HgN/A
11:30 AM82 °FPassing clouds.8 mph40%30.07 "HgN/A
11:00 AM82 °FSunny.6 mph40%30.07 "Hg10 mi
10:30 AM79 °FSunny.6 mph48%30.07 "Hg10 mi
10:00 AM79 °FSunny.3 mph48%30.07 "Hg10 mi
9:30 AM77 °FSunny.3 mph54%30.07 "Hg10 mi
9:00 AM77 °FSunny.6 mph54%30.07 "Hg10 mi
8:30 AM73 °FSunny.6 mph57%30.07 "Hg10 mi
8:00 AM73 °FSunny.6 mph57%30.09 "Hg10 mi
7:30 AM70 °FSunny.6 mph60%30.09 "Hg10 mi
6:30 AM68 °FSunny.6 mph64%30.09 "Hg10 mi
6:00 AM68 °FSunny.6 mph64%30.09 "Hg10 mi
5:00 AM66 °FClear.8 mph68%30.12 "Hg10 mi
4:00 AM66 °FClear.8 mph68%30.12 "Hg10 mi
Weather by CustomWeather, © 2015

See weather overviewHow to use our weather pages